Tiempo cada hora Abiego

Hoy, 31 Octubre, Sábado

Tiempo Temperatura Precipitaciones Viento Presión Humedad
00:00 +12°C° 0 mm 1 mps 712 mmHg 59%
01:00 +12°C° 0 mm 1 mps 711 mmHg 58%
02:00 +12°C° 0 mm 1 mps 711 mmHg 56%
03:00 +11°C° 0 mm 1 mps 711 mmHg 54%
04:00 +11°C° 0 mm 1 mps 711 mmHg 52%
05:00 +11°C° 0 mm 1 mps 710 mmHg 50%
06:00 +11°C° 0 mm 1 mps 711 mmHg 49%
07:00 +13°C° 0 mm 1 mps 711 mmHg 44%
08:00 +15°C° 0 mm 1 mps 711 mmHg 40%
09:00 +16°C° 0 mm 0 mps 712 mmHg 35%
10:00 +19°C° 0 mm 1 mps 712 mmHg 34%
11:00 +21°C° 0 mm 1 mps 712 mmHg 32%
12:00 +21°C° 0 mm 2 mps 712 mmHg 30%
13:00 +23°C° 0 mm 2 mps 712 mmHg 31%
14:00 +23°C° 0 mm 2 mps 711 mmHg 32%
15:00 +23°C° 0 mm 2 mps 711 mmHg 33%
16:00 +20°C° 0 mm 2 mps 711 mmHg 39%
17:00 +18°C° 0 mm 2 mps 711 mmHg 44%
18:00 +15°C° 0 mm 1 mps 711 mmHg 50%
19:00 +15°C° 0 mm 1 mps 711 mmHg 52%
20:00 +14°C° 0 mm 1 mps 711 mmHg 53%
21:00 +14°C° 0 mm 1 mps 711 mmHg 54%
22:00 +13°C° 0 mm 1 mps 711 mmHg 55%
23:00 +13°C° 0 mm 1 mps 711 mmHg 57%

Mañana, 1 Noviembre, Domingo

Tiempo Temperatura Precipitaciones Viento Presión Humedad
00:00 +13°C° 0 mm 1 mps 711 mmHg 58%
01:00 +13°C° 0 mm 1 mps 711 mmHg 58%
02:00 +12°C° 0 mm 1 mps 710 mmHg 58%
03:00 +12°C° 0 mm 1 mps 710 mmHg 58%
04:00 +12°C° 0 mm 1 mps 710 mmHg 57%
05:00 +12°C° 0 mm 1 mps 710 mmHg 57%
06:00 +12°C° 0 mm 1 mps 710 mmHg 56%
07:00 +14°C° 0 mm 1 mps 711 mmHg 52%
08:00 +14°C° 0 mm 0 mps 711 mmHg 48%
09:00 +16°C° 0 mm 0 mps 711 mmHg 44%
10:00 +17°C° 0 mm 0 mps 711 mmHg 42%
11:00 +21°C° 0 mm 1 mps 711 mmHg 40%
12:00 +22°C° 0 mm 1 mps 712 mmHg 37%
13:00 +22°C° 0 mm 1 mps 711 mmHg 38%
14:00 +22°C° 0 mm 1 mps 711 mmHg 39%
15:00 +22°C° 0 mm 1 mps 711 mmHg 40%
16:00 +21°C° 0 mm 1 mps 711 mmHg 46%
17:00 +17°C° 0 mm 0 mps 710 mmHg 51%
18:00 +15°C° 0 mm 0 mps 710 mmHg 56%
19:00 +15°C° 0 mm 0 mps 710 mmHg 57%
20:00 +16°C° 0 mm 1 mps 710 mmHg 59%
21:00 +15°C° 0 mm 1 mps 710 mmHg 60%
22:00 +15°C° 0 mm 1 mps 710 mmHg 61%
23:00 +15°C° 0 mm 1 mps 710 mmHg 62%

Pasado mañana, 2 Noviembre, Lunes

Tiempo Temperatura Precipitaciones Viento Presión Humedad
00:00 +14°C° 0 mm 1 mps 710 mmHg 62%
01:00 +14°C° 0 mm 1 mps 710 mmHg 63%
02:00 +14°C° 0 mm 1 mps 709 mmHg 63%
03:00 +14°C° 0 mm 1 mps 709 mmHg 63%
04:00 +14°C° 0 mm 1 mps 709 mmHg 64%
05:00 +13°C° 0 mm 1 mps 709 mmHg 64%
06:00 +13°C° 0 mm 1 mps 709 mmHg 65%
07:00 +15°C° 0 mm 1 mps 709 mmHg 60%
08:00 +18°C° 0 mm 1 mps 709 mmHg 55%
09:00 +17°C° 0 mm 0 mps 710 mmHg 50%
10:00 +20°C° 0 mm 1 mps 710 mmHg 46%
11:00 +22°C° 0 mm 1 mps 710 mmHg 43%
12:00 +23°C° 0 mm 1 mps 710 mmHg 40%
13:00 +23°C° 0 mm 1 mps 710 mmHg 40%
14:00 +23°C° 0 mm 1 mps 710 mmHg 40%
15:00 +23°C° 0 mm 1 mps 710 mmHg 40%
16:00 +21°C° 0 mm 1 mps 710 mmHg 45%
17:00 +20°C° 0 mm 1 mps 710 mmHg 51%
18:00 +16°C° 0 mm 0 mps 710 mmHg 56%
19:00 +16°C° 0 mm 0 mps 710 mmHg 58%
20:00 +16°C° 0 mm 1 mps 711 mmHg 59%
21:00 +16°C° 0 mm 1 mps 711 mmHg 61%
22:00 +16°C° 0 mm 1 mps 711 mmHg 63%
23:00 +15°C° 0 mm 1 mps 711 mmHg 65%

3 Noviembre, Martes

Tiempo Temperatura Precipitaciones Viento Presión Humedad
00:00 +15°C° 0 mm 1 mps 712 mmHg 67%
01:00 +15°C° 0 mm 1 mps 712 mmHg 69%
02:00 +14°C° 0 mm 1 mps 712 mmHg 70%
03:00 +14°C° 0 mm 1 mps 712 mmHg 72%
04:00 +14°C° 0 mm 1 mps 712 mmHg 72%
05:00 +14°C° 0 mm 1 mps 712 mmHg 72%
06:00 +15°C° 0 mm 1 mps 713 mmHg 72%
07:00 +14°C° 0.1 mm 1 mps 713 mmHg 73%
08:00 +14°C° 0.1 mm 1 mps 714 mmHg 74%
09:00 +14°C° 0.1 mm 1 mps 714 mmHg 75%
10:00 +14°C° 0.5 mm 1 mps 714 mmHg 77%
11:00 +14°C° 0.5 mm 1 mps 714 mmHg 80%
12:00 +14°C° 0.5 mm 1 mps 714 mmHg 83%
13:00 +13°C° 1.1 mm 1 mps 714 mmHg 84%
14:00 +13°C° 1.1 mm 2 mps 714 mmHg 85%
15:00 +13°C° 1.1 mm 2 mps 714 mmHg 87%
16:00 +13°C° 0.6 mm 2 mps 714 mmHg 86%
17:00 +13°C° 0.6 mm 2 mps 714 mmHg 86%
18:00 +12°C° 0.6 mm 2 mps 714 mmHg 85%
19:00 +12°C° 0 mm 2 mps 714 mmHg 83%
20:00 +12°C° 0 mm 2 mps 714 mmHg 81%
21:00 +12°C° 0 mm 1 mps 715 mmHg 80%
22:00 +10°C° 0 mm 2 mps 714 mmHg 80%
23:00 +10°C° 0 mm 2 mps 714 mmHg 80%

4 Noviembre, Miércoles

Tiempo Temperatura Precipitaciones Viento Presión Humedad
00:00 +10°C° 0 mm 2 mps 713 mmHg 81%
01:00 +9°C° 0.6 mm 2 mps 713 mmHg 83%
02:00 +10°C° 0.6 mm 1 mps 713 mmHg 85%
03:00 +10°C° 0.6 mm 1 mps 712 mmHg 88%
04:00 +10°C° 1.1 mm 1 mps 712 mmHg 89%
05:00 +9°C° 1.1 mm 1 mps 712 mmHg 90%
06:00 +9°C° 1.1 mm 1 mps 711 mmHg 90%
07:00 +9°C° 0.5 mm 1 mps 711 mmHg 90%
08:00 +9°C° 0.5 mm 1 mps 711 mmHg 89%
09:00 +9°C° 0.5 mm 1 mps 711 mmHg 89%
10:00 +9°C° 2 mm 1 mps 711 mmHg 90%
11:00 +8°C° 2 mm 1 mps 710 mmHg 92%
12:00 +8°C° 2 mm 1 mps 710 mmHg 93%
13:00 +8°C° 2.2 mm 1 mps 709 mmHg 93%
14:00 +7°C° 2.2 mm 2 mps 709 mmHg 93%
15:00 +7°C° 2.2 mm 2 mps 709 mmHg 93%
16:00 +7°C° 1.5 mm 2 mps 709 mmHg 93%
17:00 +7°C° 1.5 mm 2 mps 709 mmHg 94%
18:00 +8°C° 1.5 mm 1 mps 709 mmHg 94%
19:00 +8°C° 0.7 mm 1 mps 710 mmHg 94%
20:00 +9°C° 0.7 mm 1 mps 710 mmHg 93%
21:00 +9°C° 0.7 mm 1 mps 710 mmHg 92%
22:00 +9°C° 0.1 mm 1 mps 710 mmHg 92%
23:00 +9°C° 0.1 mm 1 mps 710 mmHg 91%

5 Noviembre, Jueves

Tiempo Temperatura Precipitaciones Viento Presión Humedad
00:00 +8°C° 0.1 mm 2 mps 710 mmHg 91%
01:00 +8°C° 0 mm 2 mps 710 mmHg 90%
02:00 +7°C° 0 mm 2 mps 710 mmHg 89%
03:00 +7°C° 0 mm 2 mps 710 mmHg 89%
04:00 +7°C° 0 mm 2 mps 710 mmHg 87%
05:00 +7°C° 0 mm 2 mps 710 mmHg 85%
06:00 +7°C° 0 mm 2 mps 710 mmHg 83%
07:00 +9°C° 0 mm 1 mps 711 mmHg 78%
08:00 +11°C° 0 mm 1 mps 711 mmHg 72%
09:00 +12°C° 0 mm 1 mps 711 mmHg 67%
10:00 +14°C° 0 mm 2 mps 711 mmHg 63%
11:00 +14°C° 0 mm 3 mps 711 mmHg 58%
12:00 +17°C° 0 mm 4 mps 711 mmHg 54%
13:00 +17°C° 0 mm 4 mps 711 mmHg 54%
14:00 +17°C° 0 mm 4 mps 711 mmHg 54%
15:00 +17°C° 0 mm 4 mps 711 mmHg 55%
16:00 +16°C° 0 mm 3 mps 711 mmHg 61%
17:00 +14°C° 0 mm 3 mps 711 mmHg 67%
18:00 +13°C° 0 mm 3 mps 711 mmHg 72%
19:00 +12°C° 0.1 mm 3 mps 711 mmHg 73%
20:00 +12°C° 0.1 mm 3 mps 711 mmHg 74%
21:00 +12°C° 0.1 mm 3 mps 711 mmHg 75%
22:00 +12°C° 0.1 mm 3 mps 711 mmHg 74%
23:00 +13°C° 0.1 mm 2 mps 711 mmHg 74%
Mostrar más

Necesitamos Su Consentimiento

Meteoprog y nuestros Proveedores de Servicios pueden almacenar y acceder a sus datos personales como cookies, identificadores de dispositivo u otras tecnologías similares de su dispositivo y procesar dichos datos para personalizar contenido y anuncios, además de ofrecer funciones de redes sociales y analizar el tráfico.

  • Almacenar y/o acceder a información en su dispositivo

    Se puede almacenar o acceder a cookies, identificadores de dispositivo u otra información de su dispositivo para los fines anteriormente indicados.

  • Anuncios y contenido personalizados, medición de anuncios y contenido, percepciones del público, y desarrollo de productos

    Los anuncios y el contenido pueden personalizarse en base a su perfil. Se pueden añadir más datos para personalizar mejor los anuncios y contenidos. Se puede medir el rendimiento de los anuncios y contenidos. Se puede obtener la percepción sobre el público que ha visto los anuncios y contenidos. Dichos datos pueden usarse para desarrollar o mejorar la experiencia del usuario, sistemas y software.

Al hacer clic en ‘Estoy De Acuerdo’ usted permitirá el uso de las cookies, identificadores de dispositivo, balizas web u otras tecnologías similares indicadas. Su configuración puede cambiarse desde el navegador de su dispositivo.

Para ciertos fines, los intereses legítimos pueden ser considerados por encima del consentimiento. Puede leer más sobre ello en nuestra Política de Privacidad y Cookies.